GAP2145 RPLL-RPVI

Flight info

Callsign GAP2145
Flight time 0h 47m
Altitude 31000
Route VERDE2R VERDE A461 SAJ W3 BEDER BEDER1N
Aircraft A321/M-SDE3FGHIRWY/LB1

Departure

Time 2026-04-14 02:58
Airport Ninoy Aquino International Airport (RPLL)

Arrival

Time 2026-04-14 03:45
Airport Iloilo International Airport (RPVI)
Time Latitude Longitude Altitude Speed Heading
2026-04-14 02:39 14.51090 121.01359 82 ft 0 kts 220°
2026-04-14 02:44 14.51100 121.01367 82 ft 2 kts 220°
2026-04-14 02:44 14.51111 121.01377 82 ft 0 kts 220°
2026-04-14 02:44 14.51119 121.01384 82 ft 2 kts 209°
2026-04-14 02:45 14.51133 121.01389 82 ft 2 kts 189°
2026-04-14 02:45 14.51148 121.01389 82 ft 2 kts 169°
2026-04-14 02:45 14.51162 121.01384 82 ft 2 kts 150°
2026-04-14 02:45 14.51171 121.01378 82 ft 0 kts 136°
2026-04-14 02:46 14.51176 121.01372 82 ft 0 kts 134°
2026-04-14 02:48 14.51175 121.01373 82 ft 0 kts 134°
2026-04-14 02:48 14.51170 121.01378 82 ft 2 kts 134°
2026-04-14 02:48 14.51149 121.01400 82 ft 4 kts 134°
2026-04-14 02:48 14.51123 121.01427 82 ft 5 kts 134°
2026-04-14 02:49 14.51093 121.01460 82 ft 6 kts 134°
2026-04-14 02:49 14.51058 121.01496 82 ft 7 kts 134°
2026-04-14 02:49 14.51018 121.01538 82 ft 8 kts 134°
2026-04-14 02:49 14.50973 121.01584 82 ft 9 kts 135°
2026-04-14 02:50 14.50928 121.01630 82 ft 8 kts 135°
2026-04-14 02:50 14.50895 121.01663 82 ft 4 kts 136°
2026-04-14 02:50 14.50874 121.01669 82 ft 3 kts 200°
2026-04-14 02:50 14.50853 121.01647 82 ft 5 kts 236°
2026-04-14 02:51 14.50833 121.01613 82 ft 6 kts 239°
2026-04-14 02:51 14.50810 121.01572 82 ft 7 kts 240°
2026-04-14 02:51 14.50783 121.01524 82 ft 8 kts 240°
2026-04-14 02:51 14.50752 121.01469 82 ft 9 kts 240°
2026-04-14 02:52 14.50718 121.01407 82 ft 10 kts 240°
2026-04-14 02:52 14.50681 121.01341 82 ft 11 kts 240°
2026-04-14 02:52 14.50641 121.01268 82 ft 11 kts 240°
2026-04-14 02:52 14.50599 121.01192 82 ft 12 kts 240°
2026-04-14 02:53 14.50554 121.01110 82 ft 13 kts 240°
2026-04-14 02:53 14.50507 121.01026 82 ft 13 kts 240°
2026-04-14 02:53 14.50458 121.00939 82 ft 14 kts 240°
2026-04-14 02:53 14.50408 121.00849 82 ft 14 kts 240°
2026-04-14 02:54 14.50356 121.00756 82 ft 15 kts 240°
2026-04-14 02:54 14.50304 121.00661 82 ft 15 kts 240°
2026-04-14 02:54 14.50250 121.00565 82 ft 15 kts 240°
2026-04-14 02:54 14.50197 121.00468 82 ft 15 kts 240°
2026-04-14 02:55 14.50141 121.00368 82 ft 16 kts 240°
2026-04-14 02:55 14.50085 121.00268 82 ft 16 kts 240°
2026-04-14 02:55 14.50029 121.00167 82 ft 16 kts 240°
2026-04-14 02:55 14.49972 121.00065 82 ft 14 kts 242°
2026-04-14 02:56 14.49934 120.99995 82 ft 7 kts 239°
2026-04-14 02:56 14.49898 120.99960 82 ft 6 kts 189°
2026-04-14 02:56 14.49852 120.99979 82 ft 7 kts 147°
2026-04-14 02:56 14.49807 121.00015 82 ft 8 kts 122°
2026-04-14 02:57 14.49817 121.00072 82 ft 8 kts 60°
2026-04-14 02:57 14.49853 121.00137 82 ft 17 kts 60°
2026-04-14 02:57 14.50036 121.00468 82 ft 89 kts 60°
2026-04-14 02:57 14.50455 121.01220 82 ft 151 kts 60°
2026-04-14 02:58 14.51044 121.02238 496 ft 167 kts 60°
2026-04-14 02:58 14.51610 121.03254 1124 ft 167 kts 62°
2026-04-14 02:58 14.52181 121.04293 1734 ft 168 kts 62°
2026-04-14 02:58 14.52754 121.05338 2059 ft 172 kts 62°
2026-04-14 02:59 14.53364 121.06446 2287 ft 183 kts 62°
2026-04-14 02:59 14.54017 121.07629 2530 ft 196 kts 62°
2026-04-14 02:59 14.54714 121.08893 2791 ft 209 kts 62°
2026-04-14 02:59 14.55459 121.10239 3072 ft 224 kts 62°
2026-04-14 03:00 14.56108 121.11776 3265 ft 244 kts 82°
2026-04-14 03:00 14.55963 121.13543 3581 ft 258 kts 111°
2026-04-14 03:00 14.54924 121.15087 4068 ft 267 kts 140°
2026-04-14 03:00 14.53286 121.15935 4725 ft 272 kts 167°
2026-04-14 03:01 14.51385 121.16001 5411 ft 276 kts 184°
2026-04-14 03:01 14.49464 121.15785 6124 ft 282 kts 186°
2026-04-14 03:01 14.47497 121.15519 6814 ft 286 kts 186°
2026-04-14 03:01 14.45500 121.15246 7512 ft 290 kts 186°
2026-04-14 03:02 14.43485 121.14976 8195 ft 295 kts 185°
2026-04-14 03:02 14.41437 121.14707 8865 ft 299 kts 185°
2026-04-14 03:02 14.39357 121.14438 9523 ft 303 kts 185°
2026-04-14 03:02 14.37260 121.14170 10169 ft 306 kts 185°
2026-04-14 03:03 14.35135 121.13901 10815 ft 308 kts 185°
2026-04-14 03:03 14.33013 121.13631 11308 ft 314 kts 185°
2026-04-14 03:03 14.30770 121.13348 11595 ft 329 kts 185°
2026-04-14 03:03 14.28441 121.13054 11882 ft 344 kts 185°
2026-04-14 03:04 14.26017 121.12747 12109 ft 358 kts 186°
2026-04-14 03:04 14.23494 121.12427 12347 ft 371 kts 186°
2026-04-14 03:04 14.20843 121.12089 12595 ft 385 kts 186°
2026-04-14 03:04 14.18153 121.11746 12798 ft 397 kts 186°
2026-04-14 03:05 14.15359 121.11391 13013 ft 408 kts 186°
2026-04-14 03:05 14.12516 121.11028 13364 ft 414 kts 186°
2026-04-14 03:05 14.09629 121.10659 13834 ft 417 kts 186°
2026-04-14 03:05 14.06762 121.10295 14298 ft 419 kts 185°
2026-04-14 03:06 14.03822 121.09922 14753 ft 421 kts 185°
2026-04-14 03:06 14.00933 121.09557 15196 ft 424 kts 185°
2026-04-14 03:06 13.97974 121.09182 15632 ft 426 kts 185°
2026-04-14 03:06 13.94992 121.08805 16046 ft 429 kts 185°
2026-04-14 03:07 13.92016 121.08431 16443 ft 432 kts 185°
2026-04-14 03:07 13.89044 121.08055 16835 ft 435 kts 185°
2026-04-14 03:07 13.86018 121.07674 17221 ft 437 kts 185°
2026-04-14 03:07 13.82970 121.07288 17605 ft 440 kts 185°
2026-04-14 03:08 13.79912 121.06902 17967 ft 443 kts 185°
2026-04-14 03:08 13.76869 121.06518 18300 ft 445 kts 185°
2026-04-14 03:08 13.73742 121.06123 18646 ft 449 kts 185°
2026-04-14 03:08 13.70656 121.05734 18968 ft 451 kts 185°
2026-04-14 03:09 13.67499 121.05338 19289 ft 454 kts 185°
2026-04-14 03:09 13.64350 121.04942 19603 ft 457 kts 185°
2026-04-14 03:09 13.61188 121.04544 19913 ft 460 kts 185°
2026-04-14 03:09 13.57976 121.04140 20203 ft 463 kts 185°
2026-04-14 03:10 13.54749 121.03735 20501 ft 465 kts 185°
2026-04-14 03:10 13.51538 121.03393 20790 ft 467 kts 182°
2026-04-14 03:10 13.48288 121.03217 21083 ft 468 kts 179°
2026-04-14 03:10 13.45001 121.03205 21368 ft 470 kts 177°
2026-04-14 03:11 13.41714 121.03237 21642 ft 472 kts 177°
2026-04-14 03:11 13.38445 121.03277 21904 ft 474 kts 176°
2026-04-14 03:11 13.35129 121.03317 22152 ft 477 kts 177°
2026-04-14 03:11 13.31771 121.03356 22422 ft 479 kts 177°
2026-04-14 03:12 13.28439 121.03391 22692 ft 481 kts 177°
2026-04-14 03:12 13.25083 121.03425 22953 ft 483 kts 177°
2026-04-14 03:12 13.21671 121.03457 23225 ft 485 kts 177°
2026-04-14 03:12 13.18285 121.03488 23490 ft 486 kts 177°
2026-04-14 03:13 13.14902 121.03519 23767 ft 487 kts 177°
2026-04-14 03:13 13.11489 121.03552 24023 ft 489 kts 177°
2026-04-14 03:13 13.08068 121.03584 24266 ft 491 kts 177°
2026-04-14 03:13 13.04656 121.03618 24493 ft 493 kts 177°
2026-04-14 03:14 13.01205 121.03653 24714 ft 495 kts 177°
2026-04-14 03:14 12.97741 121.03687 24996 ft 495 kts 177°
2026-04-14 03:14 12.94291 121.03720 25341 ft 494 kts 177°
2026-04-14 03:14 12.90873 121.03754 25688 ft 492 kts 177°
2026-04-14 03:15 12.87427 121.03787 26045 ft 491 kts 177°
2026-04-14 03:15 12.84007 121.03821 26385 ft 490 kts 177°
2026-04-14 03:15 12.80587 121.03855 26745 ft 489 kts 176°
2026-04-14 03:15 12.77188 121.03889 27102 ft 487 kts 176°
2026-04-14 03:16 12.73771 121.03924 27455 ft 486 kts 176°
2026-04-14 03:16 12.70399 121.03958 27794 ft 485 kts 176°
2026-04-14 03:16 12.67006 121.03992 28130 ft 485 kts 176°
2026-04-14 03:16 12.63660 121.04027 28471 ft 484 kts 176°
2026-04-14 03:17 12.60293 121.04062 28815 ft 483 kts 177°
2026-04-14 03:17 12.53560 121.04132 29449 ft 482 kts 177°
2026-04-14 03:17 12.50174 121.04167 29708 ft 483 kts 177°
2026-04-14 03:18 12.46811 121.04202 29947 ft 483 kts 177°
2026-04-14 03:18 12.43453 121.04260 30186 ft 483 kts 175°
2026-04-14 03:18 12.40137 121.04713 30407 ft 481 kts 166°
2026-04-14 03:18 12.36898 121.05685 30627 ft 479 kts 157°
2026-04-14 03:19 12.33888 121.07127 30813 ft 478 kts 148°
2026-04-14 03:19 12.31146 121.08993 30952 ft 477 kts 140°
2026-04-14 03:19 12.26202 121.13560 30961 ft 482 kts 134°
2026-04-14 03:20 12.21303 121.18303 30960 ft 482 kts 134°
2026-04-14 03:20 12.16435 121.22987 30960 ft 482 kts 134°
2026-04-14 03:21 12.11526 121.27689 30952 ft 482 kts 134°
2026-04-14 03:21 12.06622 121.32376 30944 ft 482 kts 135°
2026-04-14 03:22 12.01737 121.37041 30939 ft 482 kts 135°
2026-04-14 03:22 11.96824 121.41729 30935 ft 482 kts 135°
2026-04-14 03:23 11.91928 121.46399 30931 ft 482 kts 135°
2026-04-14 03:23 11.87039 121.51062 30931 ft 482 kts 135°
2026-04-14 03:24 11.82131 121.55739 30932 ft 481 kts 135°
2026-04-14 03:24 11.77249 121.60392 30851 ft 477 kts 135°
2026-04-14 03:25 11.74849 121.62678 30610 ft 474 kts 134°
2026-04-14 03:25 11.72452 121.64961 30200 ft 471 kts 134°
2026-04-14 03:25 11.70048 121.67252 29568 ft 467 kts 134°
2026-04-14 03:25 11.67674 121.69511 28833 ft 466 kts 134°
2026-04-14 03:26 11.65308 121.71759 28039 ft 466 kts 134°
2026-04-14 03:26 11.62968 121.73980 27167 ft 467 kts 134°
2026-04-14 03:26 11.60570 121.76255 26195 ft 470 kts 134°
2026-04-14 03:26 11.58173 121.78532 25189 ft 473 kts 134°
2026-04-14 03:27 11.55793 121.80793 24201 ft 475 kts 133°
2026-04-14 03:27 11.53370 121.83095 23517 ft 469 kts 133°
2026-04-14 03:27 11.51012 121.85332 22862 ft 464 kts 133°
2026-04-14 03:27 11.48657 121.87569 22193 ft 460 kts 133°
2026-04-14 03:28 11.46331 121.89774 21532 ft 456 kts 133°
2026-04-14 03:28 11.44026 121.91958 20886 ft 453 kts 133°
2026-04-14 03:28 11.41731 121.94134 20243 ft 449 kts 134°
2026-04-14 03:28 11.39432 121.96313 19600 ft 445 kts 134°
2026-04-14 03:29 11.37184 121.98446 18971 ft 442 kts 134°
2026-04-14 03:29 11.34936 122.00577 18343 ft 438 kts 134°
2026-04-14 03:29 11.32718 122.02681 17719 ft 434 kts 134°
2026-04-14 03:29 11.30523 122.04761 17096 ft 430 kts 135°
2026-04-14 03:30 11.28344 122.06825 16472 ft 427 kts 135°
2026-04-14 03:30 11.26174 122.08880 15836 ft 423 kts 135°
2026-04-14 03:30 11.24046 122.10896 15209 ft 420 kts 135°
2026-04-14 03:30 11.21912 122.12919 14683 ft 413 kts 135°
2026-04-14 03:31 11.19860 122.14859 14322 ft 389 kts 135°
2026-04-14 03:31 11.17953 122.16663 14060 ft 360 kts 134°
2026-04-14 03:31 11.16184 122.18338 13816 ft 335 kts 134°
2026-04-14 03:31 11.14543 122.19896 13592 ft 313 kts 134°
2026-04-14 03:32 11.12991 122.21369 13397 ft 300 kts 134°
2026-04-14 03:32 11.11472 122.22813 13211 ft 294 kts 134°
2026-04-14 03:32 11.09991 122.24219 13042 ft 288 kts 134°
2026-04-14 03:32 11.08537 122.25597 12876 ft 283 kts 134°
2026-04-14 03:33 11.07094 122.26961 12708 ft 281 kts 134°
2026-04-14 03:33 11.05662 122.28316 12504 ft 280 kts 134°
2026-04-14 03:33 11.04229 122.29664 12122 ft 284 kts 134°
2026-04-14 03:33 11.02763 122.31040 11733 ft 287 kts 134°
2026-04-14 03:34 10.99810 122.33812 10962 ft 291 kts 134°
2026-04-14 03:34 10.98314 122.35215 10568 ft 293 kts 134°
2026-04-14 03:34 10.96809 122.36627 10176 ft 295 kts 134°
2026-04-14 03:35 10.95287 122.38050 9780 ft 296 kts 135°
2026-04-14 03:35 10.93539 122.39149 9337 ft 304 kts 161°
2026-04-14 03:35 10.91435 122.39240 8944 ft 308 kts 191°
2026-04-14 03:35 10.89362 122.38652 8577 ft 308 kts 195°
2026-04-14 03:36 10.87275 122.38020 8197 ft 308 kts 195°
2026-04-14 03:36 10.85229 122.37420 7826 ft 308 kts 194°
2026-04-14 03:36 10.83161 122.36834 7450 ft 307 kts 194°
2026-04-14 03:36 10.81077 122.36257 7075 ft 304 kts 194°
2026-04-14 03:37 10.79067 122.35708 6707 ft 292 kts 194°
2026-04-14 03:37 10.77143 122.35185 6357 ft 280 kts 194°
2026-04-14 03:37 10.75297 122.34686 6018 ft 269 kts 194°
2026-04-14 03:37 10.73522 122.34204 5696 ft 259 kts 193°
2026-04-14 03:38 10.71814 122.33742 5391 ft 249 kts 193°
2026-04-14 03:38 10.70169 122.33296 5146 ft 236 kts 193°
2026-04-14 03:38 10.68646 122.32906 5073 ft 214 kts 187°
2026-04-14 03:38 10.67232 122.33019 4917 ft 198 kts 157°
2026-04-14 03:39 10.66074 122.33737 4737 ft 191 kts 131°
2026-04-14 03:39 10.65358 122.34830 4467 ft 184 kts 109°
2026-04-14 03:39 10.64924 122.36029 4239 ft 182 kts 105°
2026-04-14 03:39 10.64513 122.37254 4005 ft 181 kts 105°
2026-04-14 03:40 10.64103 122.38456 3778 ft 181 kts 106°
2026-04-14 03:40 10.63695 122.39668 3572 ft 179 kts 102°
2026-04-14 03:40 10.63696 122.40906 3398 ft 177 kts 75°
2026-04-14 03:40 10.64285 122.42000 3231 ft 177 kts 48°
2026-04-14 03:41 10.65303 122.42701 3085 ft 179 kts 25°
2026-04-14 03:41 10.66472 122.43150 2951 ft 180 kts 21°
2026-04-14 03:41 10.67656 122.43578 2807 ft 180 kts 21°
2026-04-14 03:41 10.68835 122.44001 2665 ft 179 kts 21°
2026-04-14 03:42 10.70023 122.44434 2519 ft 179 kts 21°
2026-04-14 03:42 10.71196 122.44863 2348 ft 176 kts 21°
2026-04-14 03:42 10.72304 122.45268 2144 ft 162 kts 22°
2026-04-14 03:42 10.73332 122.45645 1972 ft 149 kts 22°
2026-04-14 03:43 10.74274 122.45992 1773 ft 143 kts 22°
2026-04-14 03:43 10.75208 122.46338 1594 ft 142 kts 22°
2026-04-14 03:43 10.76135 122.46683 1414 ft 141 kts 22°
2026-04-14 03:43 10.77064 122.47028 1229 ft 141 kts 22°
2026-04-14 03:44 10.77995 122.47372 1040 ft 140 kts 22°
2026-04-14 03:44 10.78912 122.47712 849 ft 140 kts 22°
2026-04-14 03:44 10.79835 122.48047 708 ft 140 kts 22°
2026-04-14 03:44 10.80760 122.48392 533 ft 140 kts 23°
2026-04-14 03:45 10.81675 122.48735 343 ft 139 kts 21°
2026-04-14 03:45 10.82587 122.49070 184 ft 134 kts 22°
2026-04-14 03:45 10.83325 122.49343 176 ft 74 kts 21°
2026-04-14 03:45 10.83547 122.49429 176 ft 6 kts 19°
2026-04-14 03:46 10.83572 122.49443 176 ft 2 kts 70°
2026-04-14 03:46 10.83564 122.49468 176 ft 4 kts 115°
2026-04-14 03:46 10.83550 122.49501 175 ft 5 kts 110°
2026-04-14 03:46 10.83536 122.49542 175 ft 6 kts 109°
2026-04-14 03:47 10.83518 122.49590 175 ft 7 kts 110°
2026-04-14 03:47 10.83500 122.49639 175 ft 6 kts 111°
2026-04-14 03:47 10.83472 122.49671 175 ft 6 kts 153°
2026-04-14 03:47 10.83424 122.49672 175 ft 7 kts 195°
2026-04-14 03:48 10.83370 122.49653 175 ft 8 kts 200°
2026-04-14 03:48 10.83308 122.49630 175 ft 9 kts 200°
2026-04-14 03:48 10.83239 122.49605 175 ft 10 kts 200°
2026-04-14 03:48 10.83201 122.49595 175 ft 4 kts 167°
2026-04-14 03:49 10.83179 122.49622 175 ft 5 kts 114°
2026-04-14 03:49 10.83168 122.49651 175 ft 3 kts 110°
2026-04-14 03:49 10.83165 122.49659 175 ft 0 kts 110°